Погода в Циммермановке

Россия / Хабаровский край     51°20′23″N   139°14′42″E
темп.,
°C
ветер,
м/с
пор.,
м/с
влажн.,
%
обл.,
%
осадки,
мм/ч
давл.,
гПа
погр.,
м
20 апреля, вт
вт2001:00−1зюз1298100 1.1 99399
04:00−3юз259791 1.3 993136
07:00−2зюз389587 0.0 993334
10:000з3798100 0.5 995595
13:00+2зсз3586100 1.6 996944
16:00+3сз478399 2.3 9991213
19:00+1ссз2789100 1.0 1002353
22:00−1зюз1393100 1.5 1005123
21 апреля, ср
ср2101:00−1зюз1194100 0.2 100928
04:00−2ююз1194100 0.3 101224
07:00−1ююз118936 0.0 101443
10:00+3з23825 0.0 1016566
13:00+6зсз146850 0.0 10171403
16:00+7св256523 0.0 10181498
19:00+3вюв11926 0.0 102124
22:00−2ююв22921 0.0 102320
22 апреля, чт
чт2201:00−3ю22924 0.0 102414
04:00−3ююв229173 0.0 102515
07:000ю12835 0.0 102454
10:00+7ссв01723 0.0 1023356
13:00+11ю12673 0.0 1021550
16:00+13ююв22706 0.0 1019400
19:00+8ююв33905 0.0 101944
22:00+4ю32855 0.0 102029
23 апреля, пт
пт2301:00+4ю328399 0.0 101929
04:00+4ю328385 0.0 101828
07:00+7ююз24825 0.0 101788
10:00+15зсз3963100 0.0 1017721
13:00+11св547377 0.1 1019518
16:00+2св4993100 0.8 1023600
19:00−1ссв31199100 6.8 1025560
22:00−2св3998100 12.1 1026590
24 апреля, сб
сб2401:00−3ссв2798100 4.4 1026565
04:00−4ююз1198100 5.9 102426
07:00−3ююз1289100 0.0 102258
10:000зсз127020 0.0 1021702
13:00+2зсз2374100 0.1 10191093
16:00+1сз1388100 1.9 1018427
19:00+1ююз0089100 1.4 101726
22:00−5ю2292100 1.5 101730